owner,sensor,date,latitude,longitude,vertical_datum,wind_speed,wind_to_direction,wind_speed_of_gust,qcFlag 
TCOON,ioos:station:TCOON:068:1,2009-07-01T00:00:00Z,27.2970,-97.4049,0.0,7.0,101.0,8.8,'11111222,11111222,11111222' 
TCOON,ioos:station:TCOON:068:1,2009-07-01T01:00:00Z,27.2970,-97.4049,0.0,6.5,108.0,8.2,'11111222,11111222,11111222' 
TCOON,ioos:station:TCOON:068:1,2009-07-01T03:00:00Z,27.2970,-97.4049,0.0,6.1,113.0,7.0,'11111222,11111222,11111222' 
TCOON,ioos:station:TCOON:068:1,2009-07-01T04:00:00Z,27.2970,-97.4049,0.0,4.3,122.0,5.3,'11111222,11111222,11111222' 
TCOON,ioos:station:TCOON:068:1,2009-07-01T05:00:00Z,27.2970,-97.4049,0.0,4.7,135.0,5.8,'11111222,11111222,11111222' 
TCOON,ioos:station:TCOON:068:1,2009-07-01T06:00:00Z,27.2970,-97.4049,0.0,4.9,138.0,6.1,'11111222,11111222,11111222' 
TCOON,ioos:station:TCOON:068:1,2009-07-01T07:00:00Z,27.2970,-97.4049,0.0,6.3,152.0,99.0,'11111222,11111222,11144222' 
TCOON,ioos:station:TCOON:068:1,2009-07-01T08:00:00Z,27.2970,-97.4049,0.0,5.9,161.0,7.4,'11111222,11111222,11111222' 
TCOON,ioos:station:TCOON:068:1,2009-07-01T09:00:00Z,27.2970,-97.4049,0.0,4.7,169.0,5.6,'11111222,11111222,11111222' 
TCOON,ioos:station:TCOON:068:1,2009-07-01T10:00:00Z,27.2970,-97.4049,0.0,5.2,163.0,5.9,'11111222,11111222,11111222' 
TCOON,ioos:station:TCOON:068:1,2009-07-01T11:00:00Z,27.2970,-97.4049,0.0,3.1,144.0,4.1,'11111222,11111222,11111222' 
TCOON,ioos:station:TCOON:068:1,2009-07-01T12:00:00Z,27.2970,-97.4049,0.0,2.6,145.0,3.3,'11111222,11111222,11111222' 
TCOON,ioos:station:TCOON:068:1,2009-07-01T13:00:00Z,27.2970,-97.4049,0.0,1.6,126.0,2.2,'11111222,11111222,11111222' 
TCOON,ioos:station:TCOON:068:1,2009-07-01T14:00:00Z,27.2970,-97.4049,0.0,1.4,123.0,1.8,'11111222,11111222,11111222' 
TCOON,ioos:station:TCOON:068:1,2009-07-01T15:00:00Z,27.2970,-97.4049,0.0,1.4,125.0,2.0,'11111222,11111222,11111222' 
TCOON,ioos:station:TCOON:068:1,2009-07-01T16:00:00Z,27.2970,-97.4049,0.0,2.7,122.0,3.4,'11111222,11111222,11111222' 
TCOON,ioos:station:TCOON:068:1,2009-07-01T17:00:00Z,27.2970,-97.4049,0.0,3.7,112.0,4.6,'11111222,11111222,11111222' 
TCOON,ioos:station:TCOON:068:1,2009-07-01T18:00:00Z,27.2970,-97.4049,0.0,4.4,120.0,5.7,'11111222,11111222,11111222' 
TCOON,ioos:station:TCOON:068:1,2009-07-01T19:00:00Z,27.2970,-97.4049,0.0,6.6,90.0,7.8,'11111222,11111222,11111222' 
TCOON,ioos:station:TCOON:068:1,2009-07-01T20:00:00Z,27.2970,-97.4049,0.0,7.6,88.0,9.3,'11111222,11111222,11111222' 
TCOON,ioos:station:TCOON:068:1,2009-07-01T21:00:00Z,27.2970,-97.4049,0.0,8.9,87.0,10.6,'11111222,11111222,11111222' 
TCOON,ioos:station:TCOON:068:1,2009-07-01T22:00:00Z,27.2970,-97.4049,0.0,9.4,82.0,10.7,'11111222,11111222,11111222' 
TCOON,ioos:station:TCOON:068:1,2009-07-01T23:00:00Z,27.2970,-97.4049,0.0,9.2,94.0,12.0,'11111222,11111222,11111222' 
TCOON,ioos:station:TCOON:068:1,2009-07-02T00:00:00Z,27.2970,-97.4049,0.0,8.5,100.0,9.8,'11111222,11111222,11111222' 
TCOON,ioos:station:TCOON:068:1,2009-07-02T01:00:00Z,27.2970,-97.4049,0.0,6.9,100.0,8.4,'11111222,11111222,11111222' 
TCOON,ioos:station:TCOON:068:1,2009-07-02T02:00:00Z,27.2970,-97.4049,0.0,6.6,124.0,8.2,'11111222,11111222,11111222' 
TCOON,ioos:station:TCOON:068:1,2009-07-02T03:00:00Z,27.2970,-97.4049,0.0,6.0,130.0,7.7,'11111222,11111222,11111222' 
TCOON,ioos:station:TCOON:068:1,2009-07-02T04:00:00Z,27.2970,-97.4049,0.0,4.6,125.0,6.0,'11111222,11111222,11111222' 
TCOON,ioos:station:TCOON:068:1,2009-07-02T05:00:00Z,27.2970,-97.4049,0.0,4.8,140.0,6.4,'11111222,11111222,11111222' 
TCOON,ioos:station:TCOON:068:1,2009-07-02T06:00:00Z,27.2970,-97.4049,0.0,4.1,148.0,4.8,'11111222,11111222,11111222' 
TCOON,ioos:station:TCOON:068:1,2009-07-02T07:00:00Z,27.2970,-97.4049,0.0,4.2,149.0,4.9,'11111222,11111222,11111222' 
TCOON,ioos:station:TCOON:068:1,2009-07-02T08:00:00Z,27.2970,-97.4049,0.0,4.5,155.0,5.3,'11111222,11111222,11111222' 
TCOON,ioos:station:TCOON:068:1,2009-07-02T09:00:00Z,27.2970,-97.4049,0.0,3.0,148.0,3.8,'11111222,11111222,11111222' 
TCOON,ioos:station:TCOON:068:1,2009-07-02T10:00:00Z,27.2970,-97.4049,0.0,2.9,161.0,3.4,'11111222,11111222,11111222' 
TCOON,ioos:station:TCOON:068:1,2009-07-02T11:00:00Z,27.2970,-97.4049,0.0,2.9,175.0,3.4,'11111222,11111222,11111222' 
TCOON,ioos:station:TCOON:068:1,2009-07-02T12:00:00Z,27.2970,-97.4049,0.0,0.2,162.0,0.3,'11111222,11111222,11111222' 
TCOON,ioos:station:TCOON:068:1,2009-07-02T13:00:00Z,27.2970,-97.4049,0.0,1.3,92.0,1.6,'11111222,11111222,11111222' 
TCOON,ioos:station:TCOON:068:1,2009-07-02T14:00:00Z,27.2970,-97.4049,0.0,0.9,155.0,1.2,'11111222,11111222,11111222' 
TCOON,ioos:station:TCOON:068:1,2009-07-02T15:00:00Z,27.2970,-97.4049,0.0,1.9,119.0,2.5,'11111222,11111222,11111222' 
TCOON,ioos:station:TCOON:068:1,2009-07-02T16:00:00Z,27.2970,-97.4049,0.0,2.4,110.0,3.4,'11111222,11111222,11111222' 
TCOON,ioos:station:TCOON:068:1,2009-07-02T17:00:00Z,27.2970,-97.4049,0.0,4.4,74.0,5.3,'11111222,11111222,11111222' 
TCOON,ioos:station:TCOON:068:1,2009-07-02T18:00:00Z,27.2970,-97.4049,0.0,6.4,68.0,7.8,'11111222,11111222,11111222' 
TCOON,ioos:station:TCOON:068:1,2009-07-02T19:00:00Z,27.2970,-97.4049,0.0,7.0,81.0,8.4,'11111222,11111222,11111222' 
TCOON,ioos:station:TCOON:068:1,2009-07-02T20:00:00Z,27.2970,-97.4049,0.0,8.2,91.0,99.0,'11111222,11111222,11144222' 
TCOON,ioos:station:TCOON:068:1,2009-07-02T21:00:00Z,27.2970,-97.4049,0.0,7.2,91.0,8.5,'11111222,11111222,11111222' 
TCOON,ioos:station:TCOON:068:1,2009-07-02T22:00:00Z,27.2970,-97.4049,0.0,6.6,89.0,8.3,'11111222,11111222,11111222' 
TCOON,ioos:station:TCOON:068:1,2009-07-02T23:00:00Z,27.2970,-97.4049,0.0,6.5,90.0,8.0,'11111222,11111222,11111222' 
TCOON,ioos:station:TCOON:068:1,2009-07-03T00:00:00Z,27.2970,-97.4049,0.0,7.7,87.0,9.0,'11111222,11111222,11111222' 
TCOON,ioos:station:TCOON:068:1,2009-07-03T01:00:00Z,27.2970,-97.4049,0.0,6.3,95.0,7.3,'11111222,11111222,11111222' 
TCOON,ioos:station:TCOON:068:1,2009-07-03T02:00:00Z,27.2970,-97.4049,0.0,4.0,112.0,5.5,'11111222,11111222,11111222' 
TCOON,ioos:station:TCOON:068:1,2009-07-03T03:00:00Z,27.2970,-97.4049,0.0,5.4,117.0,6.7,'11111222,11111222,11111222' 
TCOON,ioos:station:TCOON:068:1,2009-07-03T04:00:00Z,27.2970,-97.4049,0.0,5.2,110.0,6.1,'11111222,11111222,11111222' 
TCOON,ioos:station:TCOON:068:1,2009-07-03T05:00:00Z,27.2970,-97.4049,0.0,6.2,113.0,8.1,'11111222,11111222,11111222' 
TCOON,ioos:station:TCOON:068:1,2009-07-03T06:00:00Z,27.2970,-97.4049,0.0,5.3,136.0,6.9,'11111222,11111222,11111222' 
TCOON,ioos:station:TCOON:068:1,2009-07-03T07:00:00Z,27.2970,-97.4049,0.0,4.9,145.0,6.2,'11111222,11111222,11111222' 
TCOON,ioos:station:TCOON:068:1,2009-07-03T08:00:00Z,27.2970,-97.4049,0.0,3.5,143.0,4.3,'11111222,11111222,11111222' 
TCOON,ioos:station:TCOON:068:1,2009-07-03T09:00:00Z,27.2970,-97.4049,0.0,4.7,157.0,5.5,'11111222,11111222,11111222' 
TCOON,ioos:station:TCOON:068:1,2009-07-03T10:00:00Z,27.2970,-97.4049,0.0,4.6,154.0,5.5,'11111222,11111222,11111222' 
TCOON,ioos:station:TCOON:068:1,2009-07-03T11:00:00Z,27.2970,-97.4049,0.0,3.6,152.0,4.4,'11111222,11111222,11111222' 
TCOON,ioos:station:TCOON:068:1,2009-07-03T12:00:00Z,27.2970,-97.4049,0.0,2.7,150.0,3.6,'11111222,11111222,11111222' 
TCOON,ioos:station:TCOON:068:1,2009-07-03T13:00:00Z,27.2970,-97.4049,0.0,3.0,149.0,3.7,'11111222,11111222,11111222' 
TCOON,ioos:station:TCOON:068:1,2009-07-03T14:00:00Z,27.2970,-97.4049,0.0,2.8,162.0,3.4,'11111222,11111222,11111222' 
TCOON,ioos:station:TCOON:068:1,2009-07-03T15:00:00Z,27.2970,-97.4049,0.0,5.6,127.0,7.3,'11111222,11111222,11111222' 
TCOON,ioos:station:TCOON:068:1,2009-07-03T16:00:00Z,27.2970,-97.4049,0.0,4.5,116.0,5.9,'11111222,11111222,11111222' 
TCOON,ioos:station:TCOON:068:1,2009-07-03T17:00:00Z,27.2970,-97.4049,0.0,5.1,109.0,7.1,'11111222,11111222,11111222' 
TCOON,ioos:station:TCOON:068:1,2009-07-03T18:00:00Z,27.2970,-97.4049,0.0,9.2,101.0,12.1,'11111222,11111222,11111222' 
TCOON,ioos:station:TCOON:068:1,2009-07-03T19:00:00Z,27.2970,-97.4049,0.0,8.4,116.0,10.7,'11111222,11111222,11111222' 
TCOON,ioos:station:TCOON:068:1,2009-07-03T20:00:00Z,27.2970,-97.4049,0.0,5.8,116.0,7.7,'11111222,11111222,11111222' 
TCOON,ioos:station:TCOON:068:1,2009-07-03T21:00:00Z,27.2970,-97.4049,0.0,5.9,103.0,7.7,'11111222,11111222,11111222' 
TCOON,ioos:station:TCOON:068:1,2009-07-03T22:00:00Z,27.2970,-97.4049,0.0,8.9,106.0,11.6,'11111222,11111222,11111222' 
TCOON,ioos:station:TCOON:068:1,2009-07-03T23:00:00Z,27.2970,-97.4049,0.0,7.6,110.0,9.5,'11111222,11111222,11111222' 
TCOON,ioos:station:TCOON:068:1,2009-07-04T00:00:00Z,27.2970,-97.4049,0.0,8.8,108.0,10.9,'11111222,11111222,11111222' 
TCOON,ioos:station:TCOON:068:1,2009-07-04T01:00:00Z,27.2970,-97.4049,0.0,8.7,112.0,10.6,'11111222,11111222,11111222' 
TCOON,ioos:station:TCOON:068:1,2009-07-04T02:00:00Z,27.2970,-97.4049,0.0,8.1,125.0,10.0,'11111222,11111222,11111222' 
TCOON,ioos:station:TCOON:068:1,2009-07-04T03:00:00Z,27.2970,-97.4049,0.0,7.3,131.0,9.4,'11111222,11111222,11111222' 
TCOON,ioos:station:TCOON:068:1,2009-07-04T04:00:00Z,27.2970,-97.4049,0.0,7.6,131.0,9.5,'11111222,11111222,11111222' 
TCOON,ioos:station:TCOON:068:1,2009-07-04T05:00:00Z,27.2970,-97.4049,0.0,6.6,134.0,7.4,'11111222,11111222,11111222' 
TCOON,ioos:station:TCOON:068:1,2009-07-04T06:00:00Z,27.2970,-97.4049,0.0,6.0,147.0,7.5,'11111222,11111222,11111222' 
TCOON,ioos:station:TCOON:068:1,2009-07-04T07:00:00Z,27.2970,-97.4049,0.0,6.1,151.0,7.8,'11111222,11111222,11111222' 
TCOON,ioos:station:TCOON:068:1,2009-07-04T08:00:00Z,27.2970,-97.4049,0.0,6.4,155.0,8.4,'11111222,11111222,11111222' 
TCOON,ioos:station:TCOON:068:1,2009-07-04T09:00:00Z,27.2970,-97.4049,0.0,6.5,149.0,7.5,'11111222,11111222,11111222' 
TCOON,ioos:station:TCOON:068:1,2009-07-04T10:00:00Z,27.2970,-97.4049,0.0,6.5,150.0,7.5,'11111222,11111222,11111222' 
TCOON,ioos:station:TCOON:068:1,2009-07-04T11:00:00Z,27.2970,-97.4049,0.0,7.6,156.0,9.0,'11111222,11111222,11111222' 
TCOON,ioos:station:TCOON:068:1,2009-07-04T12:00:00Z,27.2970,-97.4049,0.0,7.0,158.0,8.0,'11111222,11111222,11111222' 
TCOON,ioos:station:TCOON:068:1,2009-07-04T13:00:00Z,27.2970,-97.4049,0.0,7.8,157.0,8.9,'11111222,11111222,11111222' 
TCOON,ioos:station:TCOON:068:1,2009-07-04T14:00:00Z,27.2970,-97.4049,0.0,7.2,166.0,8.7,'11111222,11111222,11111222' 
TCOON,ioos:station:TCOON:068:1,2009-07-04T15:00:00Z,27.2970,-97.4049,0.0,8.3,162.0,9.6,'11111222,11111222,11111222' 
TCOON,ioos:station:TCOON:068:1,2009-07-04T16:00:00Z,27.2970,-97.4049,0.0,6.8,159.0,8.0,'11111222,11111222,11111222' 
TCOON,ioos:station:TCOON:068:1,2009-07-04T17:00:00Z,27.2970,-97.4049,0.0,5.9,138.0,7.5,'11111222,11111222,11111222' 
TCOON,ioos:station:TCOON:068:1,2009-07-04T18:00:00Z,27.2970,-97.4049,0.0,8.8,124.0,9.7,'11111222,11111222,11111222' 
TCOON,ioos:station:TCOON:068:1,2009-07-04T19:00:00Z,27.2970,-97.4049,0.0,7.9,123.0,9.5,'11111222,11111222,11111222' 
TCOON,ioos:station:TCOON:068:1,2009-07-04T20:00:00Z,27.2970,-97.4049,0.0,7.8,114.0,9.8,'11111222,11111222,11111222' 
TCOON,ioos:station:TCOON:068:1,2009-07-04T21:00:00Z,27.2970,-97.4049,0.0,11.7,122.0,15.4,'11111222,11111222,11111222' 
TCOON,ioos:station:TCOON:068:1,2009-07-04T22:00:00Z,27.2970,-97.4049,0.0,11.9,131.0,15.0,'11111222,11111222,11111222' 
TCOON,ioos:station:TCOON:068:1,2009-07-04T23:00:00Z,27.2970,-97.4049,0.0,12.8,130.0,16.2,'11111222,11111222,11111222' 
TCOON,ioos:station:TCOON:068:1,2009-07-05T00:00:00Z,27.2970,-97.4049,0.0,9.8,139.0,21.1,'11111222,11111222,11111222' 
TCOON,ioos:station:TCOON:068:1,2009-07-05T01:00:00Z,27.2970,-97.4049,0.0,10.3,138.0,13.1,'11111222,11111222,11111222' 
TCOON,ioos:station:TCOON:068:1,2009-07-05T02:00:00Z,27.2970,-97.4049,0.0,9.7,148.0,12.2,'11111222,11111222,11111222' 
TCOON,ioos:station:TCOON:068:1,2009-07-05T03:00:00Z,27.2970,-97.4049,0.0,8.5,145.0,10.4,'11111222,11111222,11111222' 
TCOON,ioos:station:TCOON:068:1,2009-07-05T04:00:00Z,27.2970,-97.4049,0.0,7.2,148.0,8.8,'11111222,11111222,11111222' 
TCOON,ioos:station:TCOON:068:1,2009-07-05T05:00:00Z,27.2970,-97.4049,0.0,7.2,150.0,9.2,'11111222,11111222,11111222' 
TCOON,ioos:station:TCOON:068:1,2009-07-05T06:00:00Z,27.2970,-97.4049,0.0,7.9,156.0,9.7,'11111222,11111222,11111222' 
TCOON,ioos:station:TCOON:068:1,2009-07-05T07:00:00Z,27.2970,-97.4049,0.0,9.2,154.0,14.8,'11111222,11111222,11111222' 
TCOON,ioos:station:TCOON:068:1,2009-07-05T08:00:00Z,27.2970,-97.4049,0.0,8.9,152.0,10.0,'11111222,11111222,11111222' 
TCOON,ioos:station:TCOON:068:1,2009-07-05T09:00:00Z,27.2970,-97.4049,0.0,7.7,150.0,9.3,'11111222,11111222,11111222' 
TCOON,ioos:station:TCOON:068:1,2009-07-05T10:00:00Z,27.2970,-97.4049,0.0,8.2,158.0,10.4,'11111222,11111222,11111222' 
TCOON,ioos:station:TCOON:068:1,2009-07-05T11:00:00Z,27.2970,-97.4049,0.0,7.8,158.0,9.4,'11111222,11111222,11111222' 
TCOON,ioos:station:TCOON:068:1,2009-07-05T12:00:00Z,27.2970,-97.4049,0.0,8.2,158.0,9.5,'11111222,11111222,11111222' 
TCOON,ioos:station:TCOON:068:1,2009-07-05T13:00:00Z,27.2970,-97.4049,0.0,8.5,153.0,9.8,'11111222,11111222,11111222' 
TCOON,ioos:station:TCOON:068:1,2009-07-05T14:00:00Z,27.2970,-97.4049,0.0,8.2,157.0,25.0,'11111222,11111222,11111222' 
TCOON,ioos:station:TCOON:068:1,2009-07-05T15:00:00Z,27.2970,-97.4049,0.0,7.5,151.0,9.4,'11111222,11111222,11111222' 
TCOON,ioos:station:TCOON:068:1,2009-07-05T16:00:00Z,27.2970,-97.4049,0.0,7.2,149.0,8.9,'11111222,11111222,11111222' 
TCOON,ioos:station:TCOON:068:1,2009-07-05T17:00:00Z,27.2970,-97.4049,0.0,7.4,139.0,9.0,'11111222,11111222,11111222' 
TCOON,ioos:station:TCOON:068:1,2009-07-05T18:00:00Z,27.2970,-97.4049,0.0,10.6,130.0,14.4,'11111222,11111222,11111222' 
TCOON,ioos:station:TCOON:068:1,2009-07-05T19:00:00Z,27.2970,-97.4049,0.0,12.1,134.0,14.6,'11111222,11111222,11111222' 
TCOON,ioos:station:TCOON:068:1,2009-07-05T20:00:00Z,27.2970,-97.4049,0.0,11.7,134.0,16.3,'11111222,11111222,11111222' 
TCOON,ioos:station:TCOON:068:1,2009-07-05T21:00:00Z,27.2970,-97.4049,0.0,13.5,136.0,20.0,'11111222,11111222,11111222' 
TCOON,ioos:station:TCOON:068:1,2009-07-05T22:00:00Z,27.2970,-97.4049,0.0,13.0,137.0,17.5,'11111222,11111222,11111222' 
TCOON,ioos:station:TCOON:068:1,2009-07-05T23:00:00Z,27.2970,-97.4049,0.0,13.3,138.0,18.4,'11111222,11111222,11111222' 
TCOON,ioos:station:TCOON:068:1,2009-07-06T00:00:00Z,27.2970,-97.4049,0.0,12.3,142.0,15.1,'11111222,11111222,11111222' 
TCOON,ioos:station:TCOON:068:1,2009-07-06T01:00:00Z,27.2970,-97.4049,0.0,9.0,148.0,11.6,'11111222,11111222,11111222' 
TCOON,ioos:station:TCOON:068:1,2009-07-06T02:00:00Z,27.2970,-97.4049,0.0,8.3,150.0,10.8,'11111222,11111222,11111222' 
TCOON,ioos:station:TCOON:068:1,2009-07-06T03:00:00Z,27.2970,-97.4049,0.0,7.8,145.0,9.5,'11111222,11111222,11111222' 
TCOON,ioos:station:TCOON:068:1,2009-07-06T04:00:00Z,27.2970,-97.4049,0.0,6.5,136.0,7.8,'11111222,11111222,11111222' 
TCOON,ioos:station:TCOON:068:1,2009-07-06T05:00:00Z,27.2970,-97.4049,0.0,6.3,135.0,8.8,'11111222,11111222,11111222' 
TCOON,ioos:station:TCOON:068:1,2009-07-06T06:00:00Z,27.2970,-97.4049,0.0,6.5,141.0,7.8,'11111222,11111222,11111222' 
TCOON,ioos:station:TCOON:068:1,2009-07-06T07:00:00Z,27.2970,-97.4049,0.0,7.2,143.0,8.7,'11111222,11111222,11111222' 
TCOON,ioos:station:TCOON:068:1,2009-07-06T08:00:00Z,27.2970,-97.4049,0.0,7.8,148.0,9.1,'11111222,11111222,11111222' 
TCOON,ioos:station:TCOON:068:1,2009-07-06T09:00:00Z,27.2970,-97.4049,0.0,8.1,145.0,10.1,'11111222,11111222,11111222' 
TCOON,ioos:station:TCOON:068:1,2009-07-06T10:00:00Z,27.2970,-97.4049,0.0,8.0,152.0,33.4,'11111222,11111222,11111222' 
TCOON,ioos:station:TCOON:068:1,2009-07-06T11:00:00Z,27.2970,-97.4049,0.0,6.3,149.0,7.7,'11111222,11111222,11111222' 
TCOON,ioos:station:TCOON:068:1,2009-07-06T12:00:00Z,27.2970,-97.4049,0.0,6.1,155.0,7.8,'11111222,11111222,11111222' 
TCOON,ioos:station:TCOON:068:1,2009-07-06T13:00:00Z,27.2970,-97.4049,0.0,6.8,148.0,7.9,'11111222,11111222,11111222' 
TCOON,ioos:station:TCOON:068:1,2009-07-06T14:00:00Z,27.2970,-97.4049,0.0,6.6,150.0,8.5,'11111222,11111222,11111222' 
TCOON,ioos:station:TCOON:068:1,2009-07-06T15:00:00Z,27.2970,-97.4049,0.0,7.0,148.0,8.5,'11111222,11111222,11111222' 
TCOON,ioos:station:TCOON:068:1,2009-07-06T16:00:00Z,27.2970,-97.4049,0.0,8.4,144.0,10.8,'11111222,11111222,11111222' 
TCOON,ioos:station:TCOON:068:1,2009-07-06T17:00:00Z,27.2970,-97.4049,0.0,9.3,136.0,12.1,'11111222,11111222,11111222' 
TCOON,ioos:station:TCOON:068:1,2009-07-06T18:00:00Z,27.2970,-97.4049,0.0,8.5,133.0,10.5,'11111222,11111222,11111222' 
TCOON,ioos:station:TCOON:068:1,2009-07-06T19:00:00Z,27.2970,-97.4049,0.0,11.0,126.0,12.7,'11111222,11111222,11111222' 
TCOON,ioos:station:TCOON:068:1,2009-07-06T20:00:00Z,27.2970,-97.4049,0.0,10.7,124.0,13.0,'11111222,11111222,11111222' 
TCOON,ioos:station:TCOON:068:1,2009-07-06T21:00:00Z,27.2970,-97.4049,0.0,11.3,128.0,14.1,'11111222,11111222,11111222' 
TCOON,ioos:station:TCOON:068:1,2009-07-06T22:00:00Z,27.2970,-97.4049,0.0,12.1,128.0,16.7,'11111222,11111222,11111222' 
TCOON,ioos:station:TCOON:068:1,2009-07-06T23:00:00Z,27.2970,-97.4049,0.0,12.2,127.0,15.6,'11111222,11111222,11111222' 
TCOON,ioos:station:TCOON:068:1,2009-07-07T00:00:00Z,27.2970,-97.4049,0.0,11.8,129.0,14.9,'11111222,11111222,11111222' 
TCOON,ioos:station:TCOON:068:1,2009-07-07T01:00:00Z,27.2970,-97.4049,0.0,10.9,135.0,99.0,'11111222,11111222,11144222' 
TCOON,ioos:station:TCOON:068:1,2009-07-07T02:00:00Z,27.2970,-97.4049,0.0,9.8,136.0,12.1,'11111222,11111222,11111222' 
TCOON,ioos:station:TCOON:068:1,2009-07-07T03:00:00Z,27.2970,-97.4049,0.0,9.3,140.0,11.6,'11111222,11111222,11111222' 
TCOON,ioos:station:TCOON:068:1,2009-07-07T04:00:00Z,27.2970,-97.4049,0.0,8.8,141.0,12.0,'11111222,11111222,11111222' 
TCOON,ioos:station:TCOON:068:1,2009-07-07T05:00:00Z,27.2970,-97.4049,0.0,8.1,144.0,9.7,'11111222,11111222,11111222' 
TCOON,ioos:station:TCOON:068:1,2009-07-07T06:00:00Z,27.2970,-97.4049,0.0,6.8,152.0,8.3,'11111222,11111222,11111222' 
TCOON,ioos:station:TCOON:068:1,2009-07-07T07:00:00Z,27.2970,-97.4049,0.0,6.1,142.0,7.3,'11111222,11111222,11111222' 
TCOON,ioos:station:TCOON:068:1,2009-07-07T08:00:00Z,27.2970,-97.4049,0.0,6.2,143.0,7.6,'11111222,11111222,11111222' 
TCOON,ioos:station:TCOON:068:1,2009-07-07T09:00:00Z,27.2970,-97.4049,0.0,5.3,151.0,6.7,'11111222,11111222,11111222' 
TCOON,ioos:station:TCOON:068:1,2009-07-07T10:00:00Z,27.2970,-97.4049,0.0,5.9,150.0,7.0,'11111222,11111222,11111222' 
TCOON,ioos:station:TCOON:068:1,2009-07-07T11:00:00Z,27.2970,-97.4049,0.0,6.3,141.0,7.9,'11111222,11111222,11111222' 
TCOON,ioos:station:TCOON:068:1,2009-07-07T12:00:00Z,27.2970,-97.4049,0.0,5.9,147.0,7.1,'11111222,11111222,11111222' 
TCOON,ioos:station:TCOON:068:1,2009-07-07T13:00:00Z,27.2970,-97.4049,0.0,5.8,150.0,7.1,'11111222,11111222,11111222' 
TCOON,ioos:station:TCOON:068:1,2009-07-07T14:00:00Z,27.2970,-97.4049,0.0,5.4,152.0,6.8,'11111222,11111222,11111222' 
TCOON,ioos:station:TCOON:068:1,2009-07-07T15:00:00Z,27.2970,-97.4049,0.0,3.0,109.0,3.5,'11111222,11111222,11111222' 
TCOON,ioos:station:TCOON:068:1,2009-07-07T16:00:00Z,27.2970,-97.4049,0.0,4.1,120.0,6.2,'11111222,11111222,11111222' 
TCOON,ioos:station:TCOON:068:1,2009-07-07T17:00:00Z,27.2970,-97.4049,0.0,7.4,115.0,9.7,'11111222,11111222,11111222' 
TCOON,ioos:station:TCOON:068:1,2009-07-07T18:00:00Z,27.2970,-97.4049,0.0,8.1,120.0,10.3,'11111222,11111222,11111222' 
TCOON,ioos:station:TCOON:068:1,2009-07-07T19:00:00Z,27.2970,-97.4049,0.0,9.9,124.0,11.7,'11111222,11111222,11111222' 
TCOON,ioos:station:TCOON:068:1,2009-07-07T20:00:00Z,27.2970,-97.4049,0.0,8.2,117.0,10.7,'11111222,11111222,11111222' 
TCOON,ioos:station:TCOON:068:1,2009-07-07T21:00:00Z,27.2970,-97.4049,0.0,7.3,105.0,9.7,'11111222,11111222,11111222' 
TCOON,ioos:station:TCOON:068:1,2009-07-07T22:00:00Z,27.2970,-97.4049,0.0,10.4,122.0,12.4,'11111222,11111222,11111222' 
TCOON,ioos:station:TCOON:068:1,2009-07-07T23:00:00Z,27.2970,-97.4049,0.0,9.5,123.0,11.8,'11111222,11111222,11111222' 
TCOON,ioos:station:TCOON:068:1,2009-07-08T00:00:00Z,27.2970,-97.4049,0.0,9.3,131.0,11.6,'11111222,11111222,11111222' 
TCOON,ioos:station:TCOON:068:1,2009-07-08T01:00:00Z,27.2970,-97.4049,0.0,9.2,140.0,11.2,'11111222,11111222,11111222' 
TCOON,ioos:station:TCOON:068:1,2009-07-08T02:00:00Z,27.2970,-97.4049,0.0,7.7,139.0,9.6,'11111222,11111222,11111222' 
TCOON,ioos:station:TCOON:068:1,2009-07-08T03:00:00Z,27.2970,-97.4049,0.0,6.6,131.0,8.9,'11111222,11111222,11111222' 
TCOON,ioos:station:TCOON:068:1,2009-07-08T04:00:00Z,27.2970,-97.4049,0.0,6.3,137.0,7.8,'11111222,11111222,11111222' 
TCOON,ioos:station:TCOON:068:1,2009-07-08T05:00:00Z,27.2970,-97.4049,0.0,5.6,142.0,7.0,'11111222,11111222,11111222' 
TCOON,ioos:station:TCOON:068:1,2009-07-08T06:00:00Z,27.2970,-97.4049,0.0,7.2,148.0,9.3,'11111222,11111222,11111222' 
TCOON,ioos:station:TCOON:068:1,2009-07-08T07:00:00Z,27.2970,-97.4049,0.0,5.2,148.0,6.0,'11111222,11111222,11111222' 
TCOON,ioos:station:TCOON:068:1,2009-07-08T08:00:00Z,27.2970,-97.4049,0.0,4.0,131.0,5.0,'11111222,11111222,11111222' 
TCOON,ioos:station:TCOON:068:1,2009-07-08T09:00:00Z,27.2970,-97.4049,0.0,5.5,136.0,6.8,'11111222,11111222,11111222' 
TCOON,ioos:station:TCOON:068:1,2009-07-08T10:00:00Z,27.2970,-97.4049,0.0,5.8,144.0,7.2,'11111222,11111222,11111222' 
TCOON,ioos:station:TCOON:068:1,2009-07-08T11:00:00Z,27.2970,-97.4049,0.0,5.3,144.0,6.4,'11111222,11111222,11111222' 
TCOON,ioos:station:TCOON:068:1,2009-07-08T12:00:00Z,27.2970,-97.4049,0.0,4.5,139.0,5.7,'11111222,11111222,11111222' 
TCOON,ioos:station:TCOON:068:1,2009-07-08T13:00:00Z,27.2970,-97.4049,0.0,4.8,138.0,6.0,'11111222,11111222,11111222' 
TCOON,ioos:station:TCOON:068:1,2009-07-08T14:00:00Z,27.2970,-97.4049,0.0,5.9,148.0,7.4,'11111222,11111222,11111222' 
TCOON,ioos:station:TCOON:068:1,2009-07-08T15:00:00Z,27.2970,-97.4049,0.0,8.0,151.0,10.6,'11111222,11111222,11111222' 
TCOON,ioos:station:TCOON:068:1,2009-07-08T16:00:00Z,27.2970,-97.4049,0.0,8.6,142.0,10.7,'11111222,11111222,11111222' 
TCOON,ioos:station:TCOON:068:1,2009-07-08T17:00:00Z,27.2970,-97.4049,0.0,8.1,139.0,10.1,'11111222,11111222,11111222' 
TCOON,ioos:station:TCOON:068:1,2009-07-08T18:00:00Z,27.2970,-97.4049,0.0,10.1,132.0,12.4,'11111222,11111222,11111222' 
TCOON,ioos:station:TCOON:068:1,2009-07-08T19:00:00Z,27.2970,-97.4049,0.0,10.6,129.0,13.2,'11111222,11111222,11111222' 
TCOON,ioos:station:TCOON:068:1,2009-07-08T20:00:00Z,27.2970,-97.4049,0.0,11.6,127.0,13.7,'11111222,11111222,11111222' 
TCOON,ioos:station:TCOON:068:1,2009-07-08T21:00:00Z,27.2970,-97.4049,0.0,11.5,130.0,14.7,'11111222,11111222,11111222' 
TCOON,ioos:station:TCOON:068:1,2009-07-08T22:00:00Z,27.2970,-97.4049,0.0,12.0,130.0,14.9,'11111222,11111222,11111222' 
TCOON,ioos:station:TCOON:068:1,2009-07-08T23:00:00Z,27.2970,-97.4049,0.0,11.2,131.0,14.0,'11111222,11111222,11111222' 
TCOON,ioos:station:TCOON:068:1,2009-07-09T00:00:00Z,27.2970,-97.4049,0.0,10.4,133.0,13.2,'11111222,11111222,11111222' 
TCOON,ioos:station:TCOON:068:1,2009-07-09T01:00:00Z,27.2970,-97.4049,0.0,9.2,129.0,11.5,'11111222,11111222,11111222' 
TCOON,ioos:station:TCOON:068:1,2009-07-09T02:00:00Z,27.2970,-97.4049,0.0,8.1,130.0,10.2,'11111222,11111222,11111222' 
TCOON,ioos:station:TCOON:068:1,2009-07-09T03:00:00Z,27.2970,-97.4049,0.0,8.2,135.0,10.3,'11111222,11111222,11111222' 
TCOON,ioos:station:TCOON:068:1,2009-07-09T04:00:00Z,27.2970,-97.4049,0.0,6.4,142.0,8.5,'11111222,11111222,11111222' 
TCOON,ioos:station:TCOON:068:1,2009-07-09T05:00:00Z,27.2970,-97.4049,0.0,7.9,147.0,9.5,'11111222,11111222,11111222' 
TCOON,ioos:station:TCOON:068:1,2009-07-09T06:00:00Z,27.2970,-97.4049,0.0,7.1,150.0,8.4,'11111222,11111222,11111222' 
TCOON,ioos:station:TCOON:068:1,2009-07-09T07:00:00Z,27.2970,-97.4049,0.0,7.3,155.0,8.8,'11111222,11111222,11111222' 
TCOON,ioos:station:TCOON:068:1,2009-07-09T08:00:00Z,27.2970,-97.4049,0.0,7.7,155.0,9.2,'11111222,11111222,11111222' 
TCOON,ioos:station:TCOON:068:1,2009-07-09T09:00:00Z,27.2970,-97.4049,0.0,6.5,153.0,8.1,'11111222,11111222,11111222' 
TCOON,ioos:station:TCOON:068:1,2009-07-09T10:00:00Z,27.2970,-97.4049,0.0,5.1,148.0,6.2,'11111222,11111222,11111222' 
TCOON,ioos:station:TCOON:068:1,2009-07-09T11:00:00Z,27.2970,-97.4049,0.0,4.1,137.0,5.2,'11111222,11111222,11111222' 